Torna al catalogo

COSMOS 886 DEB *

AttivoLEO
NORAD 13943·DEBRIS·🇷🇺 Russia

Lanciato Dec 27, 1976 da Baikonur Cosmodrome

Loading…

Prossimi Passaggi (prossime 24 ore)

TLE

AggiornatoSource: Space-Track

Epoca: Sep 14, 2026, 03:56 UTC

1 13943U 76126BM  26257.16428654  .00003258  00000-0  10794-2 0  9991
2 13943  65.5748  48.0023 0067122 248.0539 287.0384 14.37943006156105

Traccia COSMOS 886 DEB * in tempo reale con AllMySat

Download on the App Store